Location: Unspecified
(0.0000°N, 0.0000°E)
Time: 15:57:33
(UTC+02:00)

Amateur Radio Satellites - All Passes

Search period start: 30 August 2015 15:27
Search period end: 31 August 2015 15:27
Location: Unspecified, 0.0000°N, 0.0000°E

Satellite Date Start Highest point End Downlink Frequencies (MHz)
Time Altitude Azimuth
BEESAT 30 Aug 15:37:30 15:42:14 78° 283° (WNW) 15:47:01 436.000
KKS-1 30 Aug 15:44:58 15:46:02 11° 100° (E) 15:47:29 437.445
SRMSAT 30 Aug 15:48:26 15:52:33 19° 345° (NNW) 15:56:36 437.500
Oscar 19 30 Aug 15:48:28 15:52:58 30° 258° (WSW) 15:57:22 437.125/150
SWISSCUBE 30 Aug 16:03:42 16:07:55 31° 281° (W) 16:12:04 437.505
RS-15 30 Aug 16:07:59 16:18:38 60° 112° (ESE) 16:29:20 29.354- 29.394
Gurwin Techsat 1B 30 Aug 16:13:52 16:19:10 69° 257° (WSW) 16:24:26 435.225
BEESAT 3 30 Aug 16:19:03 16:21:04 13° 294° (WNW) 16:22:51 437.485
GONETS M04 30 Aug 16:19:03 16:27:53 80° 266° (W) 16:36:45
JAS-2 30 Aug 16:20:43 16:27:22 56° 77° (ENE) 16:34:46 435.910
AO-7 30 Aug 16:23:57 16:29:27 21° 76° (ENE) 16:35:28 29.400- 29.500
BEESAT 2 30 Aug 16:28:01 16:30:22 14° 294° (WNW) 16:32:31 435.950
Cosmos 2499 30 Aug 16:33:23 16:39:05 22° 83° (E) 16:44:54 435.465 / 435.565
ITAMSAT 1 30 Aug 16:42:56 16:47:46 38° 258° (WSW) 16:52:32 435.822/435.867
ITUPSAT 1 30 Aug 16:43:49 16:45:36 12° 280° (W) 16:46:59 437.325
PHONESAT 2.4 30 Aug 16:45:09 16:48:22 37° 222° (SW) 16:51:35 2401.200-2431.200
AIST 2 30 Aug 16:49:53 16:54:01 61° 292° (WNW) 16:58:10 435.215
STARS 30 Aug 17:04:04 17:08:29 81° 102° (ESE) 17:12:54 437.465
HORYU 2 30 Aug 17:06:16 17:10:08 29° 79° (E) 17:14:05 437.375
KKS-1 30 Aug 17:18:34 17:22:34 32° 281° (W) 17:26:31 437.445
MOZHAYETS 4 30 Aug 17:18:42 17:21:48 19° 100° (E) 17:25:06
SRMSAT 30 Aug 17:41:28 17:42:37 10° 354° (N) 17:43:42 437.500
JAS-2 30 Aug 18:08:25 18:12:34 16° 262° (W) 18:16:21 435.910
AO-7 30 Aug 18:14:03 18:22:09 52° 255° (WSW) 18:30:09 29.400- 29.500
RS-15 30 Aug 18:23:08 18:31:04 21° 296° (WNW) 18:38:16 29.354- 29.394
Cosmos 2499 30 Aug 18:24:46 18:32:13 39° 266° (W) 18:39:03 435.465 / 435.565
JUGNU 30 Aug 18:24:57 18:27:07 12° 9° (N) 18:29:21 437.505
HORYU 2 30 Aug 18:44:45 18:46:40 12° 260° (W) 18:48:15 437.375
MOZHAYETS 4 30 Aug 18:55:33 18:58:54 20° 280° (W) 19:02:06
CUTE-I 30 Aug 18:56:09 18:58:38 14° 79° (E) 19:01:29 437.470
CUBESAT XI-V 30 Aug 19:07:03 19:10:47 25° 101° (E) 19:14:40 437.345
SRMSAT 30 Aug 19:32:11 19:32:56 10° 5° (N) 19:33:45 437.500
Cubesat XI-IV 30 Aug 19:47:51 19:53:09 63° 78° (ENE) 19:58:26 437.490
STRAND 1 30 Aug 19:54:00 19:57:31 20° 101° (E) 20:01:17 437.568
O/OREOS (USA 219) 30 Aug 20:05:56 20:10:12 42° 285° (WNW) 20:14:27 437.305
JUGNU 30 Aug 20:12:13 20:16:50 24° 17° (NNE) 20:21:31 437.505
PRISM 30 Aug 20:17:17 20:20:26 22° 101° (E) 20:23:43 437.425
AIST 1 30 Aug 20:23:30 20:25:24 13° 84° (E) 20:27:35
ISS 30 Aug 20:28:14 20:31:18 41° 234° (SW) 20:34:22 145.825
CUTE-I 30 Aug 20:33:42 20:38:38 37° 258° (WSW) 20:43:28 437.470
CUBESAT XI-V 30 Aug 20:45:09 20:48:06 16° 280° (W) 20:50:49 437.345
GOMX 1 30 Aug 20:53:17 20:55:53 17° 79° (E) 20:58:43 467.674
DOVE 4 30 Aug 21:14:32 21:17:14 17° 79° (E) 21:20:12 437.250
HO-68 30 Aug 21:15:00 21:20:16 24° 77° (ENE) 21:25:51 435.675
CANX-2 30 Aug 21:18:50 21:21:08 15° 80° (E) 21:23:40 2200.000
SRMSAT 30 Aug 21:19:08 21:23:02 18° 14° (NNE) 21:27:01 437.500
STRAND 1 30 Aug 21:32:26 21:36:36 25° 281° (W) 21:40:40 437.568
SEEDS 30 Aug 21:42:23 21:45:32 21° 80° (E) 21:48:49 437.485
PRISM 30 Aug 21:53:33 21:55:45 14° 280° (W) 21:57:42 437.425
BRITE-PL 30 Aug 21:53:34 21:57:09 27° 260° (W) 22:00:39 437.365/2234.400
AIST 1 30 Aug 21:59:25 22:02:56 23° 265° (W) 22:06:21
JUGNU 30 Aug 22:00:17 22:06:04 63° 21° (NNE) 22:11:52 437.505
COMPASS 1 30 Aug 22:06:19 22:10:08 33° 80° (E) 22:13:58 437.405
YUBILEINY 30 Aug 22:09:29 22:18:08 67° 94° (E) 22:26:49 435.215
CINEMA 3 30 Aug 22:10:15 22:14:13 35° 79° (E) 22:18:24 145.822/145.860
CUBEBUG 2 30 Aug 22:12:58 22:15:01 13° 79° (E) 22:17:22 437.445
AAUSAT CUBESAT 2 30 Aug 22:17:48 22:21:45 40° 79° (E) 22:25:42 437.432
UWE-3 30 Aug 22:23:15 22:25:16 13° 80° (E) 22:27:37 435.000/436.395/437.385
Cosmos 2491 30 Aug 22:28:45 22:37:32 81° 266° (W) 22:46:24 435.465 / 435.565
GOMX 1 30 Aug 22:31:01 22:33:56 18° 261° (W) 22:36:44 467.674
CUTE 1.7 + AOD 2 30 Aug 22:39:06 22:43:10 39° 259° (W) 22:47:10 437.475
DOVE 4 30 Aug 22:51:52 22:54:54 18° 261° (W) 22:57:50 437.250
DELFI C3 30 Aug 22:53:25 22:56:42 24° 80° (E) 23:00:04 145.870
CANX-2 30 Aug 22:53:32 22:56:56 22° 260° (W) 23:00:13 2200.000
HO-68 30 Aug 23:01:20 23:07:53 38° 257° (WSW) 23:14:18 435.675
SRMSAT 30 Aug 23:07:03 23:12:37 42° 20° (NNE) 23:18:16 437.500
Oscar 11 30 Aug 23:14:08 23:18:30 87° 259° (WSW) 23:22:51 145.826/435.025
HUMSAT D 30 Aug 23:17:11 23:19:39 16° 80° (E) 23:22:20 437.325/437.525
SEEDS 30 Aug 23:18:33 23:21:11 15° 260° (W) 23:23:36 437.485
50 SAT 30 Aug 23:44:47 23:45:55 11° 81° (E) 23:47:21 437.505
CUBEBUG 2 30 Aug 23:47:49 23:51:33 26° 260° (W) 23:55:18 437.445
JUGNU 30 Aug 23:49:30 23:55:07 46° 200° (SSW) 00:00:45 437.505
UNISAT 6 30 Aug 23:50:22 23:54:30 40° 101° (E) 23:58:35 437.425
VELOX 1 30 Aug 23:51:02 23:52:37 12° 80° (E) 23:54:30 145.980
ZACube-1 30 Aug 23:53:58 23:58:07 41° 259° (W) 00:02:20 437.345
AUBIESAT-1 30 Aug 23:57:04 00:00:11 32° 104° (ESE) 00:03:14 437.475
UWE-3 30 Aug 23:57:56 00:01:39 26° 260° (W) 00:05:23 435.000/436.395/437.385
FUNcube-1 31 Aug 00:00:11 00:04:12 35° 259° (W) 00:08:16 145.935
M-CUBED/EXP-1 PRIME 31 Aug 00:00:44 00:04:08 50° 104° (ESE) 00:07:22 437.505
QB50P2 31 Aug 00:01:55 00:04:21 16° 100° (E) 00:07:00 145.880/145.840
NANOSAT C BR1 31 Aug 00:04:07 00:06:33 16° 100° (E) 00:09:13 145.865
Cosmos 2504 31 Aug 00:08:38 00:15:41 47° 93° (E) 00:23:20 435.465 / 435.565
YUBILEINY 31 Aug 00:10:43 00:15:02 13° 277° (W) 00:18:25 435.215
QB50P1 31 Aug 00:16:13 00:19:38 24° 101° (E) 00:23:08 145.935-145.965
TIGRISAT 31 Aug 00:19:16 00:23:41 79° 281° (WNW) 00:28:00 435.000
DELFI C3 31 Aug 00:30:06 00:31:38 11° 260° (W) 00:32:52 145.870
ANTELSAT 31 Aug 00:35:56 00:40:07 42° 281° (WNW) 00:44:13 437.575/2403.000
ESTCUBE 1 31 Aug 00:37:37 00:41:50 41° 79° (E) 00:46:04 437.505/2401.250
DX 1 31 Aug 00:39:51 00:44:09 65° 258° (WSW) 00:48:25 434.975-435.025
HUMSAT D 31 Aug 00:51:59 00:55:14 21° 260° (W) 00:58:22 437.325/437.525
VERMONT LUNAR 31 Aug 00:52:46 00:54:27 14° 139° (SE) 00:56:13 437.305
UKube-1 31 Aug 00:54:54 00:59:02 44° 258° (WSW) 01:03:07 .
SRMSAT 31 Aug 00:55:56 01:01:53 71° 201° (SSW) 01:07:52 437.500
AISAT 31 Aug 00:56:02 01:00:24 68° 258° (WSW) 01:04:46 437.250
CUBEBUG 1 31 Aug 01:01:10 01:05:27 69° 79° (E) 01:09:44 437.445
SPROUT 31 Aug 01:04:02 01:06:22 15° 80° (E) 01:08:56 437.525
SO-50 31 Aug 01:07:07 01:11:33 57° 112° (ESE) 01:16:08 436.795
PCSat 31 Aug 01:13:16 01:16:28 17° 112° (ESE) 01:19:58 145.827
POLYITAN 1 31 Aug 01:16:18 01:20:19 40° 281° (WNW) 01:24:19 437.675
50 SAT 31 Aug 01:17:08 01:20:19 23° 259° (W) 01:23:26 437.505
POPSAT HIP 1 31 Aug 01:19:31 01:23:29 37° 281° (W) 01:27:25 437.405
DUCHIFAT 1 31 Aug 01:21:18 01:25:14 37° 281° (W) 01:29:09 145.980
VELOX 1 31 Aug 01:25:16 01:29:04 28° 259° (W) 01:32:46 145.980
BUGSAT 1 31 Aug 01:35:03 01:39:05 42° 281° (WNW) 01:43:07 437.445
QB50P2 31 Aug 01:36:51 01:40:07 21° 280° (W) 01:43:14 145.880/145.840
NANOSAT C BR1 31 Aug 01:39:00 01:42:15 20° 281° (W) 01:45:21 145.865
JUGNU 31 Aug 01:40:19 01:44:30 19° 195° (SSW) 01:48:38 437.505
QB50P1 31 Aug 01:53:13 01:55:22 13° 280° (W) 01:57:14 145.935-145.965
CUSAT 1 31 Aug 01:57:49 01:59:08 12° 281° (WNW) 02:00:23 437.405
Cosmos 2504 31 Aug 02:02:47 02:07:57 18° 277° (W) 02:12:46 435.465 / 435.565
TISAT 1 31 Aug 02:11:46 02:15:56 74° 78° (ENE) 02:20:06 437.305
DANDE 31 Aug 02:16:09 02:17:19 12° 279° (W) 02:18:23 436.750
BEESAT 31 Aug 02:26:12 02:26:37 10° 80° (E) 02:27:28 436.000
VERMONT LUNAR 31 Aug 02:28:20 02:30:50 23° 318° (NW) 02:33:17 437.305
BEESAT 3 31 Aug 02:34:13 02:37:18 23° 67° (ENE) 02:40:27 437.485
SPROUT 31 Aug 02:39:00 02:42:20 21° 260° (W) 02:45:30 437.525
Oscar 19 31 Aug 02:42:42 02:47:32 42° 102° (ESE) 02:52:25 437.125/150
BEESAT 2 31 Aug 02:44:20 02:47:21 21° 67° (ENE) 02:50:27 435.950
SRMSAT 31 Aug 02:46:14 02:51:17 27° 197° (SSW) 02:56:17 437.500
SWISSCUBE 31 Aug 02:48:35 02:52:28 26° 79° (E) 02:56:27 437.505
PCSat 31 Aug 02:54:59 02:59:48 32° 290° (WNW) 03:04:31 145.827
GONETS M04 31 Aug 02:58:32 03:04:56 24° 96° (E) 03:11:44
Gurwin Techsat 1B 31 Aug 03:13:53 03:17:49 22° 101° (E) 03:21:57 435.225
ITUPSAT 1 31 Aug 03:25:33 03:30:21 71° 78° (ENE) 03:35:07 437.325
JUGNU 31 Aug 03:32:55 03:34:25 11° 186° (S) 03:35:51 437.505
ITAMSAT 1 31 Aug 03:38:47 03:43:23 34° 102° (ESE) 03:48:07 435.822/435.867
RS-15 31 Aug 03:48:52 04:00:30 53° 68° (ENE) 04:12:21 29.354- 29.394
KKS-1 31 Aug 03:56:04 03:58:46 17° 80° (E) 04:01:40 437.445
JAS-2 31 Aug 03:56:51 04:01:35 26° 99° (E) 04:06:08 435.910
BEESAT 31 Aug 03:59:54 04:04:24 39° 259° (WSW) 04:08:48 436.000
BEESAT 3 31 Aug 04:13:38 04:15:06 11° 246° (WSW) 04:16:18 437.485
PHONESAT 2.4 31 Aug 04:22:15 04:25:36 49° 317° (NW) 04:28:55 2401.200-2431.200
BEESAT 2 31 Aug 04:23:28 04:25:15 12° 246° (WSW) 04:26:49 435.950
Oscar 19 31 Aug 04:25:01 04:26:49 11° 280° (W) 04:28:10 437.125/150
SWISSCUBE 31 Aug 04:27:08 04:30:12 16° 259° (W) 04:33:01 437.505
SRMSAT 31 Aug 04:38:17 04:41:10 13° 190° (S) 04:43:58 437.500
Cosmos 2499 31 Aug 04:41:08 04:47:33 29° 94° (E) 04:54:37 435.465 / 435.565
AO-7 31 Aug 04:48:42 04:55:51 34° 105° (ESE) 05:03:13 29.400- 29.500
AIST 2 31 Aug 04:48:53 04:52:47 46° 248° (WSW) 04:56:41 435.215
Gurwin Techsat 1B 31 Aug 04:53:26 04:57:41 24° 281° (W) 05:01:46 435.225
GONETS M04 31 Aug 04:53:36 05:01:41 41° 274° (W) 05:09:34
STARS 31 Aug 05:15:18 05:19:41 70° 258° (WSW) 05:24:03 437.465
HORYU 2 31 Aug 05:18:41 05:22:52 44° 102° (ESE) 05:27:06 437.375
ITAMSAT 1 31 Aug 05:19:52 05:22:49 15° 281° (W) 05:25:25 435.822/435.867
JUGNU 31 Aug 05:23:33 05:24:36 10° 175° (S) 05:25:41 437.505
KKS-1 31 Aug 05:31:51 05:35:16 21° 259° (W) 05:38:33 437.445
MOZHAYETS 4 31 Aug 05:34:41 05:38:48 32° 79° (E) 05:42:56
JAS-2 31 Aug 05:41:53 05:46:35 23° 283° (WNW) 05:50:45 435.910
RS-15 31 Aug 06:02:44 06:13:02 29° 246° (WSW) 06:22:43 29.354- 29.394
Cosmos 2499 31 Aug 06:33:41 06:40:33 32° 276° (W) 06:47:38 435.465 / 435.565
O/OREOS (USA 219) 31 Aug 06:39:44 06:41:56 14° 73° (ENE) 06:44:25 437.305
AO-7 31 Aug 06:41:20 06:48:31 32° 285° (WNW) 06:55:28 29.400- 29.500
Cubesat XI-IV 31 Aug 06:51:01 06:52:38 12° 101° (E) 06:54:41 437.490
JUGNU 31 Aug 07:10:39 07:14:35 18° 166° (SSE) 07:18:35 437.505
MOZHAYETS 4 31 Aug 07:14:03 07:15:54 12° 260° (W) 07:17:25
CUBESAT XI-V 31 Aug 07:25:03 07:29:25 43° 79° (E) 07:33:48 437.345
CUTE-I 31 Aug 07:33:06 07:38:03 41° 102° (ESE) 07:43:06 437.470
ISS 31 Aug 08:01:21 08:04:35 76° 304° (NW) 08:07:48 145.825
O/OREOS (USA 219) 31 Aug 08:17:28 08:21:16 25° 254° (WSW) 08:24:57 437.305
SRMSAT 31 Aug 08:18:49 08:21:45 14° 170° (S) 08:24:47 437.500
PRISM 31 Aug 08:20:43 08:24:03 24° 79° (E) 08:27:27 437.425
STRAND 1 31 Aug 08:25:25 08:30:22 49° 78° (ENE) 08:35:18 437.568
Cubesat XI-IV 31 Aug 08:27:36 08:32:38 43° 282° (WNW) 08:37:41 437.490
AIST 1 31 Aug 08:29:31 08:32:20 18° 96° (E) 08:35:21
BRITE-PL 31 Aug 08:40:38 08:45:41 34° 100° (E) 08:50:44 437.365/2234.400
YUBILEINY 31 Aug 08:51:21 08:54:49 14° 83° (E) 08:59:13 435.215
JUGNU 31 Aug 08:58:27 09:04:04 41° 160° (SSE) 09:09:42 437.505
HO-68 31 Aug 09:07:08 09:11:47 20° 103° (ESE) 09:16:51 435.675
Cosmos 2491 31 Aug 09:08:22 09:14:46 24° 96° (E) 09:21:34 435.465 / 435.565
GOMX 1 31 Aug 09:14:55 09:20:05 44° 100° (E) 09:25:07 467.674
CUTE-I 31 Aug 09:15:42 09:18:04 12° 281° (W) 09:20:00 437.470
CANX-2 31 Aug 09:25:05 09:27:50 18° 100° (E) 09:30:46 2200.000
DOVE 4 31 Aug 09:33:51 09:38:39 39° 100° (E) 09:43:21 437.250
SEEDS 31 Aug 09:47:50 09:51:10 24° 101° (E) 09:54:37 437.485
PRISM 31 Aug 09:57:37 09:59:21 12° 259° (W) 10:00:48 437.425
SRMSAT 31 Aug 10:06:31 10:11:36 29° 162° (SSE) 10:16:43 437.500
AIST 1 31 Aug 10:07:11 10:09:53 16° 275° (W) 10:12:20
COMPASS 1 31 Aug 10:10:57 10:14:46 38° 101° (E) 10:18:40 437.405
BRITE-PL 31 Aug 10:20:05 10:24:01 18° 280° (W) 10:27:38 437.365/2234.400
AAUSAT CUBESAT 2 31 Aug 10:21:57 10:25:52 45° 101° (E) 10:29:50 437.432
CUBEBUG 2 31 Aug 10:24:52 10:28:03 20° 100° (E) 10:31:19 437.445
CINEMA 3 31 Aug 10:26:36 10:31:22 65° 101° (E) 10:35:56 145.822/145.860
ZACube-1 31 Aug 10:31:18 10:32:13 11° 99° (E) 10:33:29 437.345
UWE-3 31 Aug 10:34:01 10:37:01 19° 99° (E) 10:40:08 435.000/436.395/437.385
FUNcube-1 31 Aug 10:36:20 10:38:05 13° 99° (E) 10:40:07 145.935
YUBILEINY 31 Aug 10:43:02 10:51:44 67° 266° (W) 11:00:22 435.215
CUTE 1.7 + AOD 2 31 Aug 10:46:00 10:49:45 31° 281° (W) 10:53:26 437.475
JUGNU 31 Aug 10:47:11 10:53:11 74° 338° (NNW) 10:59:10 437.505
HO-68 31 Aug 10:52:37 10:59:25 45° 283° (WNW) 11:06:09 435.675
DELFI C3 31 Aug 10:53:36 10:56:46 24° 100° (E) 11:00:02 145.870
GOMX 1 31 Aug 10:55:41 10:58:02 12° 280° (W) 10:59:56 467.674
CANX-2 31 Aug 11:00:47 11:03:38 17° 280° (W) 11:06:19 2200.000
Cosmos 2491 31 Aug 11:03:23 11:11:32 42° 274° (W) 11:19:30 435.465 / 435.565
DOVE 4 31 Aug 11:13:56 11:16:14 12° 281° (W) 11:18:07 437.250
ANTELSAT 31 Aug 11:14:48 11:16:48 13° 80° (E) 11:19:06 437.575/2403.000
HUMSAT D 31 Aug 11:22:21 11:25:03 18° 100° (E) 11:27:56 437.325/437.525
Oscar 11 31 Aug 11:23:01 11:27:16 64° 281° (WNW) 11:31:31 145.826/435.025
SEEDS 31 Aug 11:25:03 11:26:51 12° 279° (W) 11:28:22 437.485
POPSAT HIP 1 31 Aug 11:54:05 11:54:17 10° 80° (E) 11:54:51 437.405
SRMSAT 31 Aug 11:54:59 12:00:58 75° 159° (SSE) 12:06:55 437.500
AUBIESAT-1 31 Aug 11:56:21 12:00:39 42° 75° (ENE) 12:05:07 437.475
M-CUBED/EXP-1 PRIME 31 Aug 12:00:32 12:05:02 60° 75° (ENE) 12:09:44 437.505
CUBEBUG 2 31 Aug 12:01:32 12:04:37 17° 281° (W) 12:07:25 437.445
VELOX 1 31 Aug 12:01:36 12:04:35 18° 101° (E) 12:07:46 145.980
UNISAT 6 31 Aug 12:03:16 12:07:47 65° 78° (ENE) 12:12:23 437.425
ZACube-1 31 Aug 12:04:44 12:08:30 29° 281° (W) 12:12:09 437.345
QB50P2 31 Aug 12:08:09 12:11:06 19° 79° (E) 12:14:10 145.880/145.840
NANOSAT C BR1 31 Aug 12:09:57 12:12:49 19° 80° (E) 12:15:52 145.865
UWE-3 31 Aug 12:10:22 12:13:25 18° 281° (W) 12:16:15 435.000/436.395/437.385
FUNcube-1 31 Aug 12:10:44 12:14:19 25° 281° (W) 12:17:45 145.935
Cosmos 2504 31 Aug 12:13:07 12:20:52 56° 85° (E) 12:28:08 435.465 / 435.565
QB50P1 31 Aug 12:22:29 12:26:08 29° 79° (E) 12:29:51 145.935-145.965
DELFI C3 31 Aug 12:30:29 12:31:43 11° 279° (W) 12:32:39 145.870
TIGRISAT 31 Aug 12:32:17 12:36:42 52° 259° (W) 12:41:11 435.000
JUGNU 31 Aug 12:37:20 12:42:24 28° 342° (NNW) 12:47:24 437.505
ANTELSAT 31 Aug 12:49:28 12:53:26 29° 260° (W) 12:57:23 437.575/2403.000
DX 1 31 Aug 12:49:40 12:53:53 46° 282° (WNW) 12:58:05 434.975-435.025
ESTCUBE 1 31 Aug 12:51:33 12:56:01 66° 102° (ESE) 13:00:31 437.505/2401.250
CUSAT 1 31 Aug 12:52:11 13:00:23 71° 84° (E) 13:07:45 437.405
HUMSAT D 31 Aug 12:57:57 13:00:40 16° 280° (W) 13:03:12 437.325/437.525
UKube-1 31 Aug 13:03:56 13:07:51 33° 281° (W) 13:11:44 .
AISAT 31 Aug 13:08:13 13:12:31 46° 281° (W) 13:16:48 437.250
CUBEBUG 1 31 Aug 13:11:17 13:15:43 83° 279° (W) 13:20:10 437.445
SPROUT 31 Aug 13:11:23 13:14:27 20° 100° (E) 13:17:41 437.525
DANDE 31 Aug 13:13:06 13:21:34 73° 84° (E) 13:29:37 436.750
50 SAT 31 Aug 13:13:13 13:16:25 25° 281° (W) 13:19:33 437.505
SO-50 31 Aug 13:20:10 13:24:53 74° 248° (WSW) 13:29:26 436.795
POLYITAN 1 31 Aug 13:23:18 13:27:06 32° 259° (W) 13:30:51 437.675
POPSAT HIP 1 31 Aug 13:26:20 13:30:03 29° 259° (W) 13:33:43 437.405
DUCHIFAT 1 31 Aug 13:27:34 13:31:17 30° 259° (W) 13:34:55 145.980
VELOX 1 31 Aug 13:37:42 13:41:00 20° 281° (W) 13:44:10 145.980
BUGSAT 1 31 Aug 13:38:52 13:42:35 36° 259° (W) 13:46:16 437.445
QB50P2 31 Aug 13:44:04 13:46:51 16° 260° (W) 13:49:26 145.880/145.840
SRMSAT 31 Aug 13:44:41 13:50:13 40° 340° (NNW) 13:55:43 437.500
NANOSAT C BR1 31 Aug 13:45:45 13:48:31 17° 260° (W) 13:51:06 145.865
PCSat 31 Aug 13:47:36 13:52:48 52° 70° (ENE) 13:58:03 145.827
VERMONT LUNAR 31 Aug 13:54:36 13:57:29 42° 222° (SW) 14:00:22 437.305
QB50P1 31 Aug 14:01:14 14:01:53 10° 260° (W) 14:02:11 145.935-145.965
Cosmos 2504 31 Aug 14:08:33 14:12:53 15° 266° (W) 14:16:23 435.465 / 435.565
TISAT 1 31 Aug 14:17:27 14:21:42 90° 4° (N) 14:25:58 437.305
BEESAT 3 31 Aug 14:27:54 14:31:11 25° 113° (ESE) 14:34:34 437.485
JUGNU 31 Aug 14:29:15 14:32:04 13° 350° (N) 14:34:48 437.505
CUSAT 1 31 Aug 14:38:35 14:42:40 14° 265° (W) 14:45:50 437.405
BEESAT 2 31 Aug 14:38:49 14:42:05 24° 113° (ESE) 14:45:27 435.950
BEESAT 31 Aug 14:45:17 14:48:40 20° 101° (E) 14:52:16 436.000
SPROUT 31 Aug 14:47:32 14:50:24 17° 280° (W) 14:53:05 437.525
DANDE 31 Aug 14:59:56 15:04:36 15° 264° (W) 15:08:23 436.750
SWISSCUBE 31 Aug 15:09:57 15:14:32 50° 101° (ESE) 15:19:10 437.505
Oscar 19 31 Aug 15:16:09 15:21:17 75° 258° (WSW) 15:26:25 437.125/150
